Regional Weather Roundup
Issued by NWS Newport/Morehead, NC

Current Version | Previous Version | Text Only | Print | Product List | Glossary On
Versions: 1 2 3 4 5 6 7 8 9 10 11 12 13 14 15 16 17 18 19 20 21 22 23 24 25 26 27 28 29 30 31 32 33 34 35 36 37 38 39 40 41 42 43 44 45 46 47 48 49 50
000
ASUS42 KMHX 031212
RWRMHX
WEATHER ROUNDUP FOR EASTERN NORTH CAROLINA
NATIONAL WEATHER SERVICE NEWPORT/MOREHEAD CITY NC
800 AM EDT SUN MAY 03 2015

NOTE: "FAIR" INDICATES FEW OR NO CLOUDS BELOW 12,000 FEET
WITH NO SIGNIFICANT WEATHER AND/OR OBSTRUCTIONS TO VISIBILITY

NCZ015>017-031-032-045>047-102-103-031300-
NORTH COAST

CITY           SKY/WX    TMP DP  RH WIND       PRES   REMARKS
EDENTON        SUNNY     59  54  83 W6        30.15R
ELIZABETH CITY SUNNY     57  53  86 W7        30.15R
KITTY HAWK     SUNNY     58  53  84 W8        30.13R
MANTEO         SUNNY     56  52  85 NW7       30.15R

$$

NCZ045>047-081-094-103-104-031300-
CENTRAL COAST

CITY           SKY/WX    TMP DP  RH WIND       PRES   REMARKS
FRISCO         SUNNY     58  56  93 W6        30.15R
SWANQUARTER      N/A     61 N/A N/A W8        30.12S

$$

NCZ095-097-098-100-101-031300-
SOUTHERN COAST

CITY           SKY/WX    TMP DP  RH WIND       PRES   REMARKS
BEAUFORT       SUNNY     62  59  90 W3        30.16R
CEDAR ISLAND     N/A     61 N/A N/A W5        30.21R
JACKSONVILLE   MOSUNNY   55  54  96 CALM      30.17R FOG
PINEY ISLAND   SUNNY    N/A N/A N/A W7        30.16R
WILMINGTON     SUNNY     56  54  93 CALM      30.17R FOG


$$

NCZ011>013-027>030-043-044-078>080-089-090>093-098-031300-
COASTAL PLAIN

CITY           SKY/WX    TMP DP  RH WIND       PRES   REMARKS
AHOSKIE        SUNNY     55  51  88 CALM      30.16S
CLINTON        SUNNY     55  55  99 CALM      30.18R
ELIZABETHTOWN  SUNNY     55  54  96 CALM      30.17R
GOLDSBORO      SUNNY     56  53  90 CALM      30.15R
GREENVILLE     SUNNY     57  54  88 CALM      30.17R
HAVELOCK       SUNNY     59  55  87 W6        30.18R
KENANSVILLE    SUNNY     53  51  95 CALM      30.18R
KINSTON        SUNNY     55  55 100 CALM      30.17R
NEW BERN       SUNNY     59  54  83 W3        30.18R
RICHLANDS      CLOUDY    54  48  82 CALM      30.18R VSB 1/2
ROCKY MOUNT    SUNNY     56  52  86 W3        30.17R
WASHINGTON     SUNNY     56  53  90 W3        30.17R
WHITEVILLE     SUNNY     55  54  95 CALM      30.17R

$$

AMZ130-135-150-152-154-156-158-170-250-252-270-ANZ085-086-088-633-658-670-031300-
MARINE OBSERVATIONS

STATION/POSITION TIME  TEMP    WIND        PRES    WAVE   SWELL
                       AIR SEA DIR/SP/G            HT/PER HT/PER
                 (UTC) (F)     (DEG/KT/KT) (MB)    (FT/S) (FT/S)
CHESAPEAKE LIGHT 1200   59     260/  9/ 10 1020.5
64 E VA BEACH    1150   57 60  220/  6/  8 1019.7    6/ 9   7/ 9
DUCK             1100   58 53  260/  8/  9 1019.0
2 E DUCK         1111      54                N/A     6/10   3/11
OREGON INLET     1100   56 56  250/  6/  7 1020.2
13E OREGON INLT  1200      50                N/A     6/11   3/11
HATTERAS CG      1100   60 60  270/  5/  5 1019.9
DIAMOND BUOY     1150   58     310/  4/  6 1020.9    5/11   5/11
CAPE LOOKOUT     1200   65     270/  5/  6 1021.1
BEAUFORT LAB     1100   60 62   CALM  /  1 1019.8
27 SE WRIGHTSVLE 1100   64 71  320/  4/  6   N/A
5 SE WRIGHTSVLE  1108   64 66  300/  4/  6 1020.9
225 S CAPE HAT   1150   67 69   10/ 16/ 19 1020.6    9/10   7/10
41 SE CHARLESTON 1150   70 72  270/  4/  6 1021.0    3/11   3/11

$$



USA.gov is the U.S. government's official web portal to all federal, state and local government web resources and services.